Tracking 19242 objects as of 16-Aug-2018
HD Live streaming from Space Station
objects crossing your sky now

WESTFORD NEEDLES

Track WESTFORD NEEDLES now!
10-day predictions
WESTFORD NEEDLES is classified as:


NORAD ID: 21660
Int'l Code: 1963-014FG
Perigee: 1,845.6 km
Apogee: 5,247.4 km
Inclination: 86.4 °
Period: 163.8 minutes
Semi major axis: 9917 km
RCS: 0.1099 m2 (medium)
Launch date: May 9, 1963
Source: United States (US)
Launch site: AIR FORCE WESTERN TEST RANGE (AFWTR)
aabbcc
Your satellite tracking list
Your tracking list is empty




NASA's NSSDC Master Catalog

Two Line Element Set (TLE):
1 21660U 63014FG  18227.13233238 +.00000842 +00000-0 +75792-1 0  9999
2 21660 086.4116 285.0529 1715064 329.1117 040.5358 08.79023099814524
Source of the keplerian elements: AFSPC